Change the Weather History Date:

Saturday, October 5, 2013

  Actual Average Record
Temperature  
Mean Temperature 73 °F -  
Max Temperature 87 °F 77 °F 93 °F (1951)
Min Temperature 59 °F 55 °F 37 °F (2014)
Cooling Degree Days 8    
Growing Degree Days 23 (Base 50)    
Moisture  
Dew Point 62 °F    
Average Humidity 88    
Maximum Humidity 100    
Minimum Humidity 43    
Precipitation  
Precipitation 0.00 in - - ()
Sea Level Pressure  
Sea Level Pressure 30.10 in    
Wind  
Wind Speed 0 mph (SSE)    
Max Wind Speed 5 mph    
Max Gust Speed -    
Visibility 5 miles    
Events Fog    
Averages and records for this station are not official NWS values.
T = Trace of Precipitation, MM = Missing Value Source: NWS Daily Summary

Daily Weather History Graph

Daily Weather History Graph

Search for Another Location

Airport or City:

Trip Planner

Search our weather history database for the weather conditions in past years. The results will help you decide how hot, cold, wet, or windy it might be!

Date:

Astronomy

Oct. 05, 2013 Rise Set
Actual Time 7:22 AM EDT 7:02 PM EDT
Civil Twilight 6:56 AM EDT 7:27 PM EDT
Nautical Twilight 6:27 AM EDT 7:56 PM EDT
Astronomical Twilight 5:58 AM EDT 8:26 PM EDT
Moon 7:57 AM EDT (10/5) 7:24 PM EDT (10/5)
Length of Visible Light 12h 30m
Length of Day
11h 40m
New Moon, 0% of the Moon is Illuminated
Oct 5
New Moon
Oct 11
First Quarter
Oct 18
Full
Oct 26
Last Quarter
Nov 3
New

Hourly Weather History & Observations

Time (EDT) Temp. Heat Index Dew Point Humidity Pressure Visibility Wind Dir Wind Speed Gust Speed Precip Events Conditions
12:54 AM 63.0 °F - 62.1 °F 97% 30.09 in 6.0 mi Calm Calm - N/A   Clear
1:54 AM 62.1 °F - 61.0 °F 96% 30.09 in 6.0 mi Calm Calm - N/A   Clear
2:54 AM 61.0 °F - 61.0 °F 100% 30.09 in 5.0 mi Calm Calm - N/A   Clear
3:28 AM 60.1 °F - 60.1 °F 100% 30.12 in 1.5 mi Calm Calm - N/A   Clear
3:40 AM 61.0 °F - 61.0 °F 100% 30.11 in 4.0 mi Calm Calm - N/A   Clear
3:54 AM 61.0 °F - 61.0 °F 100% 30.08 in 5.0 mi Calm Calm - N/A   Clear
4:09 AM 60.1 °F - 60.1 °F 100% 30.11 in 2.0 mi Calm Calm - N/A   Clear
4:23 AM 60.1 °F - 60.1 °F 100% 30.11 in 1.8 mi Calm Calm - N/A   Clear
4:29 AM 60.1 °F - 60.1 °F 100% 30.11 in 0.5 mi Calm Calm - N/A Fog Fog
4:37 AM 60.1 °F - 60.1 °F 100% 30.11 in 1.0 mi Calm Calm - N/A   Clear
4:41 AM 59.0 °F - 59.0 °F 100% 30.12 in 3.0 mi Calm Calm - N/A   Clear
4:46 AM 60.1 °F - 60.1 °F 100% 30.12 in 1.5 mi Calm Calm - N/A   Clear
4:52 AM 60.8 °F - 60.8 °F 100% 30.12 in 0.5 mi Calm Calm - N/A Fog Fog
4:54 AM 60.1 °F - 60.1 °F 100% 30.08 in 0.5 mi Calm Calm - N/A Fog Fog
5:05 AM 60.1 °F - 60.1 °F 100% 30.12 in 0.8 mi Calm Calm - N/A   Clear
5:13 AM 60.1 °F - 60.1 °F 100% 30.12 in 1.8 mi Calm Calm - N/A   Clear
5:27 AM 60.1 °F - 60.1 °F 100% 30.12 in 3.0 mi Calm Calm - N/A   Clear
5:54 AM 59.0 °F - 59.0 °F 100% 30.10 in 3.0 mi Calm Calm - N/A   Clear
6:50 AM 60.8 °F - 60.8 °F 100% 30.14 in 2.5 mi Calm Calm - N/A   Clear
6:54 AM 60.1 °F - 60.1 °F 100% 30.12 in 3.0 mi Calm Calm - N/A   Clear
7:27 AM 59.0 °F - 59.0 °F 100% 30.15 in 1.8 mi Calm Calm - N/A   Clear
7:42 AM 59.0 °F - 59.0 °F 100% 30.16 in 3.0 mi Calm Calm - N/A   Clear
7:54 AM 60.1 °F - 60.1 °F 100% 30.14 in 4.0 mi Calm Calm - N/A   Partly Cloudy
8:07 AM 62.1 °F - 62.1 °F 100% 30.16 in 1.8 mi Calm Calm - N/A   Mostly Cloudy
8:12 AM 62.1 °F - 62.1 °F 100% 30.16 in 0.5 mi Calm Calm - N/A Fog Fog
8:41 AM 64.9 °F - 64.9 °F 100% 30.16 in 1.0 mi Calm Calm - N/A   Mist
8:47 AM 66.0 °F - 66.0 °F 100% 30.16 in 3.0 mi Calm Calm - N/A   Mostly Cloudy
8:54 AM 66.9 °F - 66.0 °F 97% 30.14 in 4.0 mi Calm Calm - N/A   Scattered Clouds
9:54 AM 75.0 °F - 68.0 °F 79% 30.14 in 7.0 mi Calm Calm - N/A   Clear
10:54 AM 79.0 °F - 66.0 °F 64% 30.13 in 10.0 mi Calm Calm - N/A   Clear
11:54 AM 82.9 °F 85.0 °F 66.0 °F 56% 30.12 in 10.0 mi Calm Calm - N/A   Clear
12:54 PM 82.9 °F 84.4 °F 64.0 °F 53% 30.11 in 10.0 mi Calm Calm - N/A   Clear
1:54 PM 84.9 °F 85.9 °F 63.0 °F 48% 30.08 in 10.0 mi SE 3.5 mph - N/A   Clear
2:54 PM 86.0 °F 86.3 °F 62.1 °F 44% 30.06 in 10.0 mi SSE 4.6 mph - N/A   Clear
3:54 PM 87.1 °F 87.5 °F 62.1 °F 43% 30.04 in 10.0 mi ESE 4.6 mph - N/A   Clear
4:54 PM 84.0 °F 84.0 °F 60.1 °F 44% 30.04 in 10.0 mi Calm Calm - N/A   Clear
5:54 PM 84.0 °F 84.5 °F 62.1 °F 47% 30.03 in 10.0 mi ESE 3.5 mph - N/A   Clear
6:54 PM 77.0 °F - 64.9 °F 66% 30.03 in 10.0 mi Calm Calm - N/A   Clear
7:54 PM 70.0 °F - 64.0 °F 81% 30.04 in 10.0 mi Calm Calm - N/A   Clear
8:54 PM 68.0 °F - 63.0 °F 84% 30.06 in 10.0 mi Calm Calm - N/A   Clear
9:54 PM 66.9 °F - 64.0 °F 90% 30.06 in 9.0 mi Calm Calm - N/A   Clear
10:54 PM 64.9 °F - 63.0 °F 93% 30.06 in 7.0 mi Calm Calm - N/A   Clear
11:54 PM 64.9 °F - 63.0 °F 93% 30.05 in 8.0 mi SW 4.6 mph - N/A   Clear